User: anonymous   Login
Location: Austin, TX
(30.3000°N, 97.7500°W)
Time: 01:51:02
(UTC-06:00)
Language:

Cosmos 2082 Rocket - Orbit

View from above orbital plane
View from above orbital plane
View from above satellite
View from above satellite

Ground track
Ground track

The orbit data is extracted from the following two-line orbital elements,

1 20625U 90046B   17324.62172659 -.00000064 +00000-0 -84294-5 0  9993
2 20625 070.9987 180.8140 0016170 235.7416 124.2175 14.14626864419707
Epoch (UTC): 20 November 2017 14:55:17
Eccentricity: 0.0016170
inclination: 70.9987°
perigee height: 832 km
apogee height: 855 km
right ascension of ascending node: 180.8140°
argument of perigee: 235.7416°
revolutions per day: 14.14626864
mean anomaly at epoch: 124.2175°
orbit number at epoch: 41970

The dashed part of the orbit path shows where the satellite is in the earth's shadow,  

DLR